CAPE
0 0 0 0 0 0 0 0 0 0 0 0 0 0 0 0 0 0 0 0 0 0 0 0 18 25 31 5 22 16 11 0 0 0 0 0 0 0 2 0 38 19 8 0 0 0 0 0 1 0 0 2 18 5
0 0 0 0 0 0 0 0 0 0 0 0 0 0 0 0 0 0 0 0 2 0 0 0 0 0 24 35 15 4 0 0 0 0 0 0 0 0 0 3 23 94 28 3 0 0 0 0 0 7 65 104 82 79
0 0 0 0 0 0 0 0 0 0 0 0 0 0 0 0 0 0 1 0 0 0 0 0 0 0 38 6 8 15 0 0 0 0 0 0 23 5 17 5 37 192 106 79 40 0 0 0 0 24 142 237 256 309
0 0 0 0 0 0 0 0 0 0 0 0 0 0 0 0 0 0 0 0 0 0 0 0 0 0 8 28 47 21 46 38 21 7 0 0 0 0 14 33 21 41 44 38 59 20 6 4 4 7 29 242 401 545
0 0 0 0 0 0 0 0 0 0 0 0 0 0 0 0 6 0 0 0 0 0 0 0 0 0 0 64 82 66 45 82 65 30 5 2 0 0 2 23 81 90 59 49 88 58 57 53 50 62 82 61 105 155
0 0 0 0 0 0 0 0 0 0 0 0 0 0 0 0 0 0 1 29 1 0 0 0 0 0 1 5 29 8 15 37 51 65 76 18 0 3 0 18 47 130 118 98 76 63 77 101 94 70 77 96 143 121
0 0 0 0 0 0 0 0 0 0 0 0 0 0 0 0 0 1 45 114 9 1 0 0 7 118 22 0 0 0 0 0 3 9 11 8 4 20 1 0 24 55 77 106 92 100 115 123 110 124 122 81 64 89
0 0 0 0 0 0 10 8 0 0 0 0 0 0 0 0 0 0 54 129 194 90 22 21 153 85 41 1 0 0 0 0 0 0 0 0 0 0 1 2 38 8 16 7 43 50 39 55 54 74 59 68 75 86
0 0 0 0 0 0 5 7 4 0 0 0 0 0 0 0 2 87 41 86 123 4 84 199 175 196 89 49 3 0 0 0 0 0 0 0 0 0 0 60 61 24 21 25 13 4 26 49 61 64 58 10 12 41
0 0 0 0 0 0 2 1 0 0 0 0 0 37 75 80 73 67 42 33 15 19 7 0 17 32 35 86 58 16 0 0 0 0 0 0 0 0 143 216 192 29 1 7 19 44 160 101 74 56 60 27 22 26
0 0 0 0 0 0 1 0 0 0 0 0 4 48 35 33 48 69 59 12 8 9 0 0 0 19 35 46 66 131 38 13 0 0 144 0 2 148 301 289 221 169 51 82 59 102 99 79 105 114 107 99 80 83
0 0 0 0 0 0 0 0 0 0 0 0 0 34 34 31 38 66 84 74 94 108 92 50 17 0 14 44 110 157 73 49 35 62 62 202 196 92 133 170 279 308 167 30 26 32 18 32 41 71 98 115 115 131
0 0 0 0 0 0 0 0 0 0 0 0 0 48 7 11 0 34 54 62 66 81 53 66 88 9 1 47 90 106 151 118 59 53 17 3 256 39 1 1 1 319 398 263 218 194 182 170 188 185 191 194 151 97
0 0 0 0 0 0 0 0 0 0 0 3 13 0 0 0 0 55 61 54 26 56 27 56 132 56 66 78 8 24 116 47 63 7 0 0 16 19 0 0 0 5 201 260 144 121 130 147 45 11 0 0 0 0
0 0 0 0 0 0 0 0 0 0 0 3 64 0 0 0 0 2 30 4 0 49 19 41 189 159 39 53 4 116 147 68 56 0 0 0 0 0 0 0 5 2 10 43 40 42 36 7 3 2 0 1 0 0
0 0 0 0 0 0 0 0 0 0 1 0 0 18 0 0 0 0 0 0 0 12 32 106 76 127 100 28 49 52 56 6 9 14 14 5 1 0 0 0 0 0 0 14 15 24 32 12 8 0 0 0 0 0
0 0 0 0 0 0 0 0 0 5 2 14 0 3 0 0 0 0 0 0 5 42 11 46 40 33 31 121 50 130 80 72 16 8 5 1 0 0 0 0 1 32 7 14 26 17 15 0 0 0 0 0 0 0
0 0 0 0 0 0 0 0 0 8 5 0 0 0 0 0 0 0 0 36 3 0 33 0 1 9 5 12 89 54 53 28 22 11 0 0 0 1 1 1 6 2 17 34 21 1 0 13 0 0 0 1 7 17
0 0 0 0 7 0 0 1 0 0 0 0 1 3 0 0 0 0 0 59 13 26 10 4 0 7 0 73 73 70 39 24 4 0 0 0 0 0 22 40 41 31 32 37 42 46 33 8 3 10 8 7 5 0
0 0 0 0 1 0 0 0 12 1 0 0 0 0 0 0 0 0 0 0 12 11 11 1 0 8 7 9 67 74 33 17 21 20 21 9 11 46 45 37 41 60 20 10 12 6 2 10 18 14 11 3 0 0
0 2 0 0 0 0 0 0 0 0 0 0 0 0 0 0 0 0 0 0 0 0 0 0 0 7 2 10 56 103 33 38 40 39 37 34 23 9 27 52 40 14 10 13 20 18 14 1 0 0 0 0 0 0
0 0 0 1 0 1 0 0 0 0 0 0 0 0 0 0 0 0 0 0 0 0 0 0 0 1 22 21 54 35 44 72 47 51 7 0 4 29 35 33 15 2 0 2 17 26 16 0 0 0 0 0 0 0
0 1 0 0 0 3 0 0 0 0 0 0 0 0 0 0 0 0 0 0 0 0 0 0 0 0 2 15 64 125 29 15 0 0 20 34 13 12 16 18 1 0 0 23 36 29 3 0 0 0 0 0 0 0
10 0 0 0 0 0 0 0 1 0 0 0 0 0 0 3 57 27 16 4 0 103 31 50 86 2 13 16 59 60 47 41 21 14 47 33 18 10 12 27 28 16 10 26 23 2 0 0 0 0 0 0 21 22
0 0 0 0 0 0 0 0 0 0 0 0 0 0 0 22 13 0 0 16 68 82 102 59 70 59 27 27 36 34 4 0 1 25 39 38 7 1 30 25 15 25 30 20 3 0 0 0 0 0 0 0 1 18
0 0 0 0 0 0 0 7 5 4 2 5 2 7 39 22 0 1 24 49 55 45 40 29 30 27 26 24 19 24 17 1 0 0 27 21 35 35 38 20 44 50 27 3 0 0 0 0 0 0 0 0 0 4
0 0 0 0 0 2 4 1 6 1 5 11 16 22 17 8 26 39 18 23 14 16 3 4 0 4 15 34 43 45 38 43 14 36 57 36 32 24 18 22 49 42 0 0 0 0 0 0 0 0 0 0 0 0
0 0 0 0 0 0 0 0 0 10 23 37 25 23 38 2 5 19 0 24 0 0 0 0 0 0 1 18 38 73 72 63 49 48 67 15 12 5 8 21 25 0 0 0 0 0 0 0 0 0 0 0 0 0
0 0 0 0 0 0 0 0 0 7 22 16 2 2 0 17 3 40 49 26 7 0 0 0 15 1 0 0 20 33 19 0 0 0 0 0 1 0 11 10 1 0 0 0 0 0 0 0 0 0 0 0 1 1
0 0 0 0 0 0 7 0 0 2 3 6 0 0 0 0 0 5 6 12 0 0 0 23 41 36 1 1 19 37 71 2 3 8 19 21 4 0 2 2 0 0 0 0 0 0 0 0 0 0 0 0 0 0
0 0 0 0 0 0 1 6 0 0 5 0 0 0 0 0 0 5 0 4 13 8 3 39 71 22 2 14 17 40 58 27 25 26 37 21 1 0 0 0 0 0 0 0 0 0 1 0 0 0 0 0 0 0
0 0 0 0 0 0 0 0 0 0 0 0 0 0 0 0 0 4 18 14 0 0 0 7 18 4 30 54 65 38 64 92 50 56 44 33 0 0 0 0 0 0 0 0 0 0 0 0 0 0 0 0 0 0
0 0 0 0 0 0 0 0 0 0 0 0 0 1 3 13 2 0 1 8 4 6 4 3 5 6 32 74 99 63 31 28 39 45 34 6 0 0 0 0 0 0 0 0 0 0 0 0 0 0 0 0 0 0
CIN
0 0 0 0 0 0 0 0 0 0 0 0 0 0 0 0 0 0 0 -18 0 0 0 0 -29 -6 -26 -4 -69 -110 -111 0 0 0 0 0 0 0 -29 0 -120 -46 -26 0 0 0 0 0 -77 0 0 -35 -360 -105
0 0 0 0 0 0 0 0 0 0 0 0 0 0 0 0 0 0 0 0 0 0 0 0 0 0 -41 -22 -36 -65 0 0 0 0 0 0 0 0 0 -82 -185 -91 -44 -20 0 0 0 0 0 -34 -206 -324 -358 -420
0 0 0 0 0 0 0 0 0 0 0 0 0 0 0 0 0 0 -20 0 0 0 0 0 0 0 -37 -53 -44 -22 -3 0 0 0 0 0 -152 -222 -148 -97 -189 -126 -145 -75 -77 0 0 0 -11 -71 -259 -280 -303 -324
0 0 0 0 0 0 0 0 0 0 0 0 0 0 0 0 0 0 0 0 0 0 0 0 0 0 -13 -48 -30 -17 -23 -38 -53 -90 0 0 0 -10 -131 -151 -107 -140 -119 -17 -68 -41 -32 -27 -30 -76 -88 -254 -214 -200
0 0 0 0 0 0 0 0 0 0 0 0 0 0 0 0 0 0 0 0 0 0 0 0 0 0 0 -32 -27 -10 -20 -16 -16 -19 -7 -15 0 -4 -64 -136 -116 -89 -132 -128 -109 -95 -28 -48 -44 -43 -186 -192 -239 -216
0 0 0 0 0 0 0 0 0 0 0 0 0 0 0 0 0 0 -11 -54 -21 0 0 0 0 0 -67 -93 -17 -20 -11 -13 -11 -13 -11 -15 0 -4 0 -65 -61 -42 -47 -65 -111 -92 -73 -72 -62 -60 -48 -230 -188 -197
0 0 0 0 0 0 0 0 0 0 0 0 0 0 0 0 0 -6 -31 -7 -55 -18 0 0 -184 -111 -90 0 0 0 0 0 -10 -8 -7 -6 -5 -6 -4 0 -50 -27 -26 -47 -121 -113 -68 -63 -72 -94 -91 -105 -258 -229
0 0 0 0 0 0 0 0 0 0 0 0 0 0 0 0 0 0 -12 -4 0 -9 -85 -147 -161 -59 -44 -7 0 0 0 0 0 0 0 0 0 0 -13 -34 -58 -102 -77 -59 -40 -58 -74 -55 -81 -93 -135 -146 -129 -117
0 0 0 0 0 0 0 0 0 0 0 0 0 0 0 0 -10 -1 -18 -5 0 -87 -25 -34 -105 -67 -21 -24 -2 0 0 0 0 0 0 0 0 0 0 -22 -35 -99 -88 -89 -97 -69 -62 -64 -34 -56 -70 -148 -155 -139
0 0 0 0 0 0 0 0 0 0 0 0 0 -8 -4 -15 -9 -9 -11 -21 -34 -27 -99 0 -7 -7 -16 -22 -17 -12 0 0 0 0 0 0 0 -2 -164 -145 -214 -198 -10 -99 -92 -66 -38 -37 -56 -95 -108 -132 -96 -91
0 0 0 0 0 0 0 0 0 0 0 0 -2 -7 -16 -9 -22 -1 -10 -30 -73 -132 -58 0 0 -5 -34 -11 -13 -23 -9 -12 0 -7 -31 0 -27 -71 -65 -71 -125 -91 -75 -40 -61 -45 -53 -50 -41 -35 -54 -49 -38 -34
0 0 0 0 0 0 0 0 0 0 0 0 0 -5 -22 -57 -20 -30 -19 -27 -33 -28 -25 -31 -37 0 -13 -23 -29 -33 -8 -6 -22 -30 -20 -16 -105 -105 -29 -38 -56 -135 -139 -16 -51 -76 -45 -27 -76 -52 -45 -30 -25 -38
0 0 0 0 0 0 0 0 0 0 0 0 -1 -2 -5 -6 0 -22 -12 -11 -5 -33 -13 -10 -33 -42 -1 -31 -17 -34 -12 -21 -42 -35 -49 -6 -61 -38 -1 -4 -12 -117 -40 -37 -42 -35 -35 -28 -19 -31 -23 -25 -28 -14
0 0 0 0 0 0 0 0 0 0 0 -3 -8 0 0 0 0 -9 -8 -20 -21 -72 -3 -20 -37 -15 -13 -13 -27 -23 -33 -69 -51 -77 0 0 -125 -123 -5 0 0 -37 -72 -37 -46 -39 -53 -45 -39 -29 0 0 0 0
0 0 0 0 0 0 0 0 0 0 0 -9 -1 0 0 0 0 0 -37 -38 0 -115 -20 -26 -44 -24 -5 -8 -3 -48 -62 -40 -43 0 0 0 0 0 0 0 -180 -85 -234 -46 -47 -48 -20 -30 -25 -32 0 -24 0 0
0 0 0 0 0 0 0 0 0 0 0 0 0 -10 0 0 0 0 0 0 0 -30 -16 -82 -40 -15 -29 -28 -52 -38 -38 -20 -31 -14 -51 -57 -16 0 0 0 0 0 0 -122 -34 -10 -12 -17 -4 -5 0 0 0 0
0 0 0 0 0 0 0 0 0 0 0 -4 -3 -15 0 0 0 0 0 -1 -60 -67 -3 -28 -13 -18 -17 -15 -16 -47 -23 -39 -22 -12 -12 -7 0 0 0 0 -3 -79 -68 -5 -13 -2 -5 -2 0 0 0 0 0 0
0 0 0 0 0 0 0 0 0 -1 0 0 0 0 0 0 0 0 0 -83 -41 -2 -58 0 -16 0 -21 -14 -23 -60 -42 -41 -18 -16 -86 0 0 -9 -30 -13 -17 -11 -15 -31 -56 -17 -1 -14 -4 0 0 -6 -33 -38
0 0 0 0 0 0 0 -2 0 0 0 0 -43 -10 0 0 0 0 0 -40 -17 -33 -19 -35 0 -46 -3 -36 -55 -64 -69 -83 -109 0 0 0 0 0 -19 -19 -20 -11 -26 -8 -10 -16 -17 -13 -29 -46 -45 -46 -37 0
0 0 0 0 0 0 0 0 -6 -3 0 0 0 -2 0 0 0 0 0 0 -12 0 0 -3 0 -21 -13 -25 -49 -56 -43 -52 -45 -32 -62 -95 -20 -17 -17 -15 -29 -49 -58 -56 -53 -55 -21 -43 -39 -32 -29 -10 0 0
0 -4 0 0 0 0 0 0 0 0 0 0 0 0 0 0 0 0 0 0 0 0 0 0 0 -2 -3 -39 -45 -40 -17 -22 -14 -18 -33 -42 -30 -30 -4 -16 -14 -16 -53 -64 -69 -57 -54 -6 0 0 0 0 0 0
0 0 0 -1 0 -1 0 0 0 0 0 0 0 0 0 0 0 0 0 0 0 0 0 0 -1 -3 -79 -47 -29 -44 -42 -37 -32 -16 -7 0 -8 -23 -12 -11 -13 -19 0 -62 -87 -74 -58 0 0 0 0 0 0 0
0 -1 0 0 0 -3 0 0 0 0 0 0 0 -2 0 0 0 0 0 0 0 0 0 0 0 0 -91 -31 -24 -38 -38 -37 0 -2 -22 -12 -10 -9 0 -9 -22 0 0 -80 -69 -36 -49 0 0 0 0 0 0 0
-12 0 0 0 0 0 0 0 -2 0 0 0 0 0 0 -5 -18 -19 -12 -17 0 -49 -35 -51 -50 -120 -94 -57 -55 -30 -25 -49 -41 -39 -35 -35 -2 -4 -6 -15 -17 -5 -57 -69 -45 -55 0 0 0 0 0 0 0 0
0 0 0 0 0 0 0 0 0 0 0 0 0 0 -2 -22 -3 0 0 -15 -21 -25 -24 -40 -38 -49 -66 -36 -36 -22 -23 0 -81 -54 -31 -21 -31 -2 -7 -11 -7 -99 -49 -49 -28 0 0 0 0 0 0 0 0 -2
0 0 0 0 0 0 0 -25 -1 -2 -9 -10 -7 -10 -21 -6 0 0 -10 -13 -18 -15 -20 -24 -26 -28 -37 -42 -32 -27 -24 -2 0 0 -40 -28 -20 -8 -7 -81 -81 -71 -55 -35 0 0 0 0 0 0 0 0 0 0
0 0 0 0 0 -1 -2 -5 -13 -12 -14 -31 -8 -7 -8 -6 -9 -13 -15 0 -1 0 -2 -7 0 -6 -13 -9 -11 -23 -32 -33 -28 -33 -19 -23 -34 -25 -19 -79 -81 -79 0 0 0 0 0 0 0 0 0 0 0 0
0 0 0 0 0 0 0 0 0 -7 -11 -8 -5 -9 -7 -1 -1 -17 0 -44 -1 0 0 0 0 0 -1 -12 -17 -18 -21 -21 -19 -17 -20 -31 -25 -14 -6 -2 -100 0 0 0 0 0 0 0 0 0 0 0 0 0
0 0 0 0 0 0 0 0 0 -5 0 0 -2 0 0 -43 -15 -74 -21 -4 -7 0 0 -2 -18 -2 0 0 -27 -30 -47 0 0 0 0 0 -20 -25 -116 -108 -92 0 0 0 0 0 0 0 0 0 0 0 0 0
0 0 0 0 0 0 -15 0 0 -1 -1 -1 -1 0 0 0 0 -32 -32 -15 0 0 -2 -25 -16 -46 -29 -5 -18 -21 -41 -12 -21 -14 -30 -11 -13 -1 -81 -113 0 0 0 0 0 0 0 0 0 0 0 0 0 0
0 0 0 0 0 0 -3 -16 -2 0 -1 0 0 0 0 -4 0 -29 0 -30 -41 -40 -8 -35 -47 -33 -17 -18 -19 -17 -24 -48 -42 -36 -15 -10 -1 0 0 0 0 0 0 0 0 0 -7 0 0 0 0 0 0 0
0 0 0 0 0 0 0 -1 -1 -8 0 0 0 0 0 0 0 -9 -58 -51 0 0 0 -53 -39 -118 -172 -129 -189 -14 -72 -91 -149 -25 -23 -6 0 0 0 0 0 0 0 0 0 0 0 0 0 0 0 0 0 0
0 0 0 0 0 0 0 0 0 0 0 0 0 -7 -5 -11 -2 0 -5 -45 -34 -24 -13 -20 -17 -29 -85 -140 -204 -259 -18 -12 -8 -7 -5 -4 0 0 0 0 0 0 0 0 0 0 0 0 0 0 0 0 0 0
Wind_Speed
nan nan nan nan nan nan nan nan nan nan nan nan nan nan nan nan nan nan nan nan nan nan nan nan nan nan nan nan nan nan nan nan nan nan nan nan nan nan nan nan nan nan nan nan nan nan nan nan nan nan nan nan nan nan
nan nan nan nan nan nan nan nan nan nan nan nan nan nan nan nan nan nan nan nan nan nan nan nan nan nan nan nan nan nan nan nan nan nan nan nan nan nan nan nan nan nan nan nan nan nan nan nan nan nan nan 51 nan nan
nan nan nan nan nan nan nan nan nan nan nan nan nan nan nan nan nan nan nan nan nan nan nan nan nan nan nan nan nan nan nan nan nan nan nan nan nan nan nan nan nan 48 48 nan nan nan nan nan nan nan 42 46 49 52
nan nan nan nan nan nan nan nan nan nan nan nan nan nan nan nan nan nan nan nan nan nan nan nan nan nan nan nan nan nan nan nan nan nan nan nan nan nan nan nan nan nan nan nan nan nan nan nan nan nan nan 52 55 55
nan nan nan nan nan nan nan nan nan nan nan nan nan nan nan nan nan nan nan nan nan nan nan nan nan nan nan nan nan nan nan nan nan nan nan nan nan nan nan nan nan nan nan nan nan nan nan nan nan nan nan nan 55 56
nan nan nan nan nan nan nan nan nan nan nan nan nan nan nan nan nan nan nan nan nan nan nan nan nan nan nan nan nan nan nan nan nan nan nan nan nan nan nan nan nan 45 45 nan nan nan nan 51 nan nan nan nan 47 51
nan nan nan nan nan nan nan nan nan nan nan nan nan nan nan nan nan nan nan 27 nan nan nan nan nan 31 nan nan nan nan nan nan nan nan nan nan nan nan nan nan nan nan nan 47 nan 53 51 53 51 55 61 nan nan nan
nan nan nan nan nan nan nan nan nan nan nan nan nan nan nan nan nan nan nan 16 22 nan nan nan 27 nan nan nan nan nan nan nan nan nan nan nan nan nan nan nan nan nan nan nan nan nan nan nan nan nan nan nan nan nan
nan nan nan nan nan nan nan nan nan nan nan nan nan nan nan nan nan nan nan nan 23 nan nan 27 27 27 nan nan nan nan nan nan nan nan nan nan nan nan nan nan nan nan nan nan nan nan nan nan nan nan nan nan nan nan
nan nan nan nan nan nan nan nan nan nan nan nan nan nan nan nan nan nan nan nan nan nan nan nan nan nan nan nan nan nan nan nan nan nan nan nan nan nan 31 30 27 nan nan nan nan nan 52 51 nan nan nan nan nan nan
nan nan nan nan nan nan nan nan nan nan nan nan nan nan nan nan nan nan nan nan nan nan nan nan nan nan nan nan nan 22 nan nan nan nan 29 nan nan 26 30 29 27 29 nan nan nan 37 nan nan 56 58 58 nan nan nan
nan nan nan nan nan nan nan nan nan nan nan nan nan nan nan nan nan nan nan nan nan 23 nan nan nan nan nan nan 24 18 nan nan nan nan nan 20 22 nan 31 30 33 38 45 nan nan nan nan nan nan nan nan 50 51 53
nan nan nan nan nan nan nan nan nan nan nan nan nan nan nan nan nan nan nan nan nan nan nan nan nan nan nan nan nan 17 16 8 nan nan nan nan 23 nan nan nan nan 35 41 42 43 43 44 44 43 41 40 39 42 nan
nan nan nan nan nan nan nan nan nan nan nan nan nan nan nan nan nan nan nan nan nan nan nan nan 22 nan nan nan nan nan 11 nan nan nan nan nan nan nan nan nan nan nan 32 33 33 36 36 36 nan nan nan nan nan nan
nan nan nan nan nan nan nan nan nan nan nan nan nan nan nan nan nan nan nan nan nan nan nan nan 24 23 nan nan nan 15 13 nan nan nan nan nan nan nan nan nan nan nan nan nan nan nan nan nan nan nan nan nan nan nan
nan nan nan nan nan nan nan nan nan nan nan nan nan nan nan nan nan nan nan nan nan nan nan 26 nan 26 24 nan nan nan nan nan nan nan nan nan nan nan nan nan nan nan nan nan nan nan nan nan nan nan nan nan nan nan
nan nan nan nan nan nan nan nan nan nan nan nan nan nan nan nan nan nan nan nan nan nan nan nan nan nan nan 20 nan 15 nan nan nan nan nan nan nan nan nan nan nan nan nan nan nan nan nan nan nan nan nan nan nan nan
nan nan nan nan nan nan nan nan nan nan nan nan nan nan nan nan nan nan nan nan nan nan nan nan nan nan nan nan nan nan nan nan nan nan nan nan nan nan nan nan nan nan nan nan nan nan nan nan nan nan nan nan nan nan
nan nan nan nan nan nan nan nan nan nan nan nan nan nan nan nan nan nan nan nan nan nan nan nan nan nan nan nan nan nan nan nan nan nan nan nan nan nan nan nan nan nan nan nan nan nan nan nan nan nan nan nan nan nan
nan nan nan nan nan nan nan nan nan nan nan nan nan nan nan nan nan nan nan nan nan nan nan nan nan nan nan nan nan nan nan nan nan nan nan nan nan nan nan nan nan nan nan nan nan nan nan nan nan nan nan nan nan nan
nan nan nan nan nan nan nan nan nan nan nan nan nan nan nan nan nan nan nan nan nan nan nan nan nan nan nan nan nan 8 nan nan nan nan nan nan nan nan nan nan nan nan nan nan nan nan nan nan nan nan nan nan nan nan
nan nan nan nan nan nan nan nan nan nan nan nan nan nan nan nan nan nan nan nan nan nan nan nan nan nan nan nan nan nan nan nan nan nan nan nan nan nan nan nan nan nan nan nan nan nan nan nan nan nan nan nan nan nan
nan nan nan nan nan nan nan nan nan nan nan nan nan nan nan nan nan nan nan nan nan nan nan nan nan nan nan nan nan 13 nan nan nan nan nan nan nan nan nan nan nan nan nan nan nan nan nan nan nan nan nan nan nan nan
nan nan nan nan nan nan nan nan nan nan nan nan nan nan nan nan nan nan nan nan nan 25 nan nan nan nan nan nan nan nan nan nan nan nan nan nan nan nan nan nan nan nan nan nan nan nan nan nan nan nan nan nan nan nan
nan nan nan nan nan nan nan nan nan nan nan nan nan nan nan nan nan nan nan nan nan nan 19 nan nan nan nan nan nan nan nan nan nan nan nan nan nan nan nan nan nan nan nan nan nan nan nan nan nan nan nan nan nan nan
nan nan nan nan nan nan nan nan nan nan nan nan nan nan nan nan nan nan nan nan nan nan nan nan nan nan nan nan nan nan nan nan nan nan nan nan nan nan nan nan nan nan nan nan nan nan nan nan nan nan nan nan nan nan
nan nan nan nan nan nan nan nan nan nan nan nan nan nan nan nan nan nan nan nan nan nan nan nan nan nan nan nan nan nan nan nan nan nan nan nan nan nan nan nan nan nan nan nan nan nan nan nan nan nan nan nan nan nan
nan nan nan nan nan nan nan nan nan nan nan nan nan nan nan nan nan nan nan nan nan nan nan nan nan nan nan nan nan nan nan nan nan nan nan nan nan nan nan nan nan nan nan nan nan nan nan nan nan nan nan nan nan nan
nan nan nan nan nan nan nan nan nan nan nan nan nan nan nan nan nan nan nan nan nan nan nan nan nan nan nan nan nan nan nan nan nan nan nan nan nan nan nan nan nan nan nan nan nan nan nan nan nan nan nan nan nan nan
nan nan nan nan nan nan nan nan nan nan nan nan nan nan nan nan nan nan nan nan nan nan nan nan nan nan nan nan nan nan nan nan nan nan nan nan nan nan nan nan nan nan nan nan nan nan nan nan nan nan nan nan nan nan
nan nan nan nan nan nan nan nan nan nan nan nan nan nan nan nan nan nan nan nan nan nan nan nan nan nan nan nan nan nan nan nan nan nan nan nan nan nan nan nan nan nan nan nan nan nan nan nan nan nan nan nan nan nan
nan nan nan nan nan nan nan nan nan nan nan nan nan nan nan nan nan nan nan nan nan nan nan nan nan nan nan nan nan nan nan nan nan nan nan nan nan nan nan nan nan nan nan nan nan nan nan nan nan nan nan nan nan nan
nan nan nan nan nan nan nan nan nan nan nan nan nan nan nan nan nan nan nan nan nan nan nan nan nan nan nan nan nan nan nan nan nan nan nan nan nan nan nan nan nan nan nan nan nan nan nan nan nan nan nan nan nan nan
Wind_Direction
nan nan nan nan nan nan nan nan nan nan nan nan nan nan nan nan nan nan nan nan nan nan nan nan nan nan nan nan nan nan nan nan nan nan nan nan nan nan nan nan nan nan nan nan nan nan nan nan nan nan nan nan nan nan
nan nan nan nan nan nan nan nan nan nan nan nan nan nan nan nan nan nan nan nan nan nan nan nan nan nan nan nan nan nan nan nan nan nan nan nan nan nan nan nan nan nan nan nan nan nan nan nan nan nan nan 243 nan nan
nan nan nan nan nan nan nan nan nan nan nan nan nan nan nan nan nan nan nan nan nan nan nan nan nan nan nan nan nan nan nan nan nan nan nan nan nan nan nan nan nan 228 234 nan nan nan nan nan nan nan 255 254 254 255
nan nan nan nan nan nan nan nan nan nan nan nan nan nan nan nan nan nan nan nan nan nan nan nan nan nan nan nan nan nan nan nan nan nan nan nan nan nan nan nan nan nan nan nan nan nan nan nan nan nan nan 257 257 253
nan nan nan nan nan nan nan nan nan nan nan nan nan nan nan nan nan nan nan nan nan nan nan nan nan nan nan nan nan nan nan nan nan nan nan nan nan nan nan nan nan nan nan nan nan nan nan nan nan nan nan nan 262 261
nan nan nan nan nan nan nan nan nan nan nan nan nan nan nan nan nan nan nan nan nan nan nan nan nan nan nan nan nan nan nan nan nan nan nan nan nan nan nan nan nan 236 237 nan nan nan nan 249 nan nan nan nan 271 273
nan nan nan nan nan nan nan nan nan nan nan nan nan nan nan nan nan nan nan 200 nan nan nan nan nan 202 nan nan nan nan nan nan nan nan nan nan nan nan nan nan nan nan nan 245 nan 254 251 252 256 264 267 nan nan nan
nan nan nan nan nan nan nan nan nan nan nan nan nan nan nan nan nan nan nan 171 204 nan nan nan 200 nan nan nan nan nan nan nan nan nan nan nan nan nan nan nan nan nan nan nan nan nan nan nan nan nan nan nan nan nan
nan nan nan nan nan nan nan nan nan nan nan nan nan nan nan nan nan nan nan nan 203 nan nan 203 207 204 nan nan nan nan nan nan nan nan nan nan nan nan nan nan nan nan nan nan nan nan nan nan nan nan nan nan nan nan
nan nan nan nan nan nan nan nan nan nan nan nan nan nan nan nan nan nan nan nan nan nan nan nan nan nan nan nan nan nan nan nan nan nan nan nan nan nan 243 239 240 nan nan nan nan nan 261 265 nan nan nan nan nan nan
nan nan nan nan nan nan nan nan nan nan nan nan nan nan nan nan nan nan nan nan nan nan nan nan nan nan nan nan nan 218 nan nan nan nan 246 nan nan 250 239 241 246 244 nan nan nan 259 nan nan 272 273 270 nan nan nan
nan nan nan nan nan nan nan nan nan nan nan nan nan nan nan nan nan nan nan nan nan 187 nan nan nan nan nan nan 216 202 nan nan nan nan nan 245 245 nan 240 238 235 238 250 nan nan nan nan nan nan nan nan 279 281 282
nan nan nan nan nan nan nan nan nan nan nan nan nan nan nan nan nan nan nan nan nan nan nan nan nan nan nan nan nan 199 205 193 nan nan nan nan 241 nan nan nan nan 240 251 255 257 265 268 269 273 276 279 281 288 nan
nan nan nan nan nan nan nan nan nan nan nan nan nan nan nan nan nan nan nan nan nan nan nan nan 186 nan nan nan nan nan 198 nan nan nan nan nan nan nan nan nan nan nan 250 263 266 266 270 279 nan nan nan nan nan nan
nan nan nan nan nan nan nan nan nan nan nan nan nan nan nan nan nan nan nan nan nan nan nan nan 188 194 nan nan nan 223 224 nan nan nan nan nan nan nan nan nan nan nan nan nan nan nan nan nan nan nan nan nan nan nan
nan nan nan nan nan nan nan nan nan nan nan nan nan nan nan nan nan nan nan nan nan nan nan 204 nan 201 205 nan nan nan nan nan nan nan nan nan nan nan nan nan nan nan nan nan nan nan nan nan nan nan nan nan nan nan
nan nan nan nan nan nan nan nan nan nan nan nan nan nan nan nan nan nan nan nan nan nan nan nan nan nan nan 214 nan 238 nan nan nan nan nan nan nan nan nan nan nan nan nan nan nan nan nan nan nan nan nan nan nan nan
nan nan nan nan nan nan nan nan nan nan nan nan nan nan nan nan nan nan nan nan nan nan nan nan nan nan nan nan nan nan nan nan nan nan nan nan nan nan nan nan nan nan nan nan nan nan nan nan nan nan nan nan nan nan
nan nan nan nan nan nan nan nan nan nan nan nan nan nan nan nan nan nan nan nan nan nan nan nan nan nan nan nan nan nan nan nan nan nan nan nan nan nan nan nan nan nan nan nan nan nan nan nan nan nan nan nan nan nan
nan nan nan nan nan nan nan nan nan nan nan nan nan nan nan nan nan nan nan nan nan nan nan nan nan nan nan nan nan nan nan nan nan nan nan nan nan nan nan nan nan nan nan nan nan nan nan nan nan nan nan nan nan nan
nan nan nan nan nan nan nan nan nan nan nan nan nan nan nan nan nan nan nan nan nan nan nan nan nan nan nan nan nan 229 nan nan nan nan nan nan nan nan nan nan nan nan nan nan nan nan nan nan nan nan nan nan nan nan
nan nan nan nan nan nan nan nan nan nan nan nan nan nan nan nan nan nan nan nan nan nan nan nan nan nan nan nan nan nan nan nan nan nan nan nan nan nan nan nan nan nan nan nan nan nan nan nan nan nan nan nan nan nan
nan nan nan nan nan nan nan nan nan nan nan nan nan nan nan nan nan nan nan nan nan nan nan nan nan nan nan nan nan 221 nan nan nan nan nan nan nan nan nan nan nan nan nan nan nan nan nan nan nan nan nan nan nan nan
nan nan nan nan nan nan nan nan nan nan nan nan nan nan nan nan nan nan nan nan nan 183 nan nan nan nan nan nan nan nan nan nan nan nan nan nan nan nan nan nan nan nan nan nan nan nan nan nan nan nan nan nan nan nan
nan nan nan nan nan nan nan nan nan nan nan nan nan nan nan nan nan nan nan nan nan nan 204 nan nan nan nan nan nan nan nan nan nan nan nan nan nan nan nan nan nan nan nan nan nan nan nan nan nan nan nan nan nan nan
nan nan nan nan nan nan nan nan nan nan nan nan nan nan nan nan nan nan nan nan nan nan nan nan nan nan nan nan nan nan nan nan nan nan nan nan nan nan nan nan nan nan nan nan nan nan nan nan nan nan nan nan nan nan
nan nan nan nan nan nan nan nan nan nan nan nan nan nan nan nan nan nan nan nan nan nan nan nan nan nan nan nan nan nan nan nan nan nan nan nan nan nan nan nan nan nan nan nan nan nan nan nan nan nan nan nan nan nan
nan nan nan nan nan nan nan nan nan nan nan nan nan nan nan nan nan nan nan nan nan nan nan nan nan nan nan nan nan nan nan nan nan nan nan nan nan nan nan nan nan nan nan nan nan nan nan nan nan nan nan nan nan nan
nan nan nan nan nan nan nan nan nan nan nan nan nan nan nan nan nan nan nan nan nan nan nan nan nan nan nan nan nan nan nan nan nan nan nan nan nan nan nan nan nan nan nan nan nan nan nan nan nan nan nan nan nan nan
nan nan nan nan nan nan nan nan nan nan nan nan nan nan nan nan nan nan nan nan nan nan nan nan nan nan nan nan nan nan nan nan nan nan nan nan nan nan nan nan nan nan nan nan nan nan nan nan nan nan nan nan nan nan
nan nan nan nan nan nan nan nan nan nan nan nan nan nan nan nan nan nan nan nan nan nan nan nan nan nan nan nan nan nan nan nan nan nan nan nan nan nan nan nan nan nan nan nan nan nan nan nan nan nan nan nan nan nan
nan nan nan nan nan nan nan nan nan nan nan nan nan nan nan nan nan nan nan nan nan nan nan nan nan nan nan nan nan nan nan nan nan nan nan nan nan nan nan nan nan nan nan nan nan nan nan nan nan nan nan nan nan nan
nan nan nan nan nan nan nan nan nan nan nan nan nan nan nan nan nan nan nan nan nan nan nan nan nan nan nan nan nan nan nan nan nan nan nan nan nan nan nan nan nan nan nan nan nan nan nan nan nan nan nan nan nan nan